Regional Weather Roundup
Issued by NWS Charleston, WV

Home | Current Version | Previous Version | Text Only | Print | Product List | Glossary Off
Versions: 1 2 3 4 5 6 7 8 9 10 11 12 13 14 15 16 17 18 19 20 21 22 23 24 25 26 27 28 29 30 31 32 33 34 35 36 37 38 39 40 41 42 43 44 45 46 47 48 49 50

000
ASUS41 KRLX 170310
RWRRLX
West Virginia Regional Weather Roundup
National Weather Service Charleston WV
1100 PM EDT MON OCT 16 2017

Note: "fair" indicates few or no clouds below 12,000 feet with no
significant weather and/or obstructions to visibility.

WVZ003-170400-
Northern Panhandle of West Virginia

CITY           SKY/WX    TMP DP  RH WIND       PRES   REMARKS
WHEELING       CLEAR     43  35  73 CALM      30.31R
$$

WVZ009-170400-
Northwest West Virginia

CITY           SKY/WX    TMP DP  RH WIND       PRES   REMARKS
PARKERSBURG    CLEAR     42  40  92 CALM      30.34R
$$

WVZ006-170400-
Western West Virginia

CITY           SKY/WX    TMP DP  RH WIND       PRES   REMARKS
HUNTINGTON     CLEAR     47  40  76 CALM      30.32R
$$

WVZ015-170400-
West Central West Virginia

CITY           SKY/WX    TMP DP  RH WIND       PRES   REMARKS
CHARLESTON     CLEAR     45  39  79 CALM      30.31R
$$

WVZ022-031-170400-
North Central West Virginia

CITY           SKY/WX    TMP DP  RH WIND       PRES   REMARKS
CLARKSBURG     CLEAR     43  40  89 CALM      30.30R
MORGANTOWN     CLEAR     43  38  82 CALM      30.31R
$$

WVZ025-035-042-045-170400-
Southern West Virginia

CITY           SKY/WX    TMP DP  RH WIND       PRES   REMARKS
BECKLEY        CLEAR     40  36  86 CALM      30.30R
LOGAN            N/A     46  39  76 CALM      30.31R
BLUEFIELD      CLEAR     41  34  76 CALM      30.31R
LEWISBURG      CLEAR     40  36  85 CALM      30.30S
$$

WVZ047-170400-
Northern Mountains of West Virginia

CITY           SKY/WX    TMP DP  RH WIND       PRES   REMARKS
ELKINS         PTCLDY    37  34  89 CALM      30.31R FOG
$$

WVZ052-170400-
Eastern Panhandle of West Virginia

CITY           SKY/WX    TMP DP  RH WIND       PRES   REMARKS
MARTINSBURG    CLEAR     50  34  54 NW3       30.27R
PETERSBURG     CLEAR     40  39  95 CALM      30.30S
$$



USA.gov is the U.S. government's official web portal to all federal, state and local government web resources and services.